| time (UTC) | temp F | wind direction | speed MPH | gust MPH | rain 1hr in | rain 24hr in | rain mn in | humidity % | barometer mb |
| 20260906061556 | 54 | 213 | 3.0 | 5.0 | 0.00 | 0.00 | 0.00 | 87 | 1032.8 |
| 20260906060055 | 53 | 188 | 2.0 | 5.0 | 0.00 | 0.00 | 0.00 | 88 | 1032.7 |
| 20260906054558 | 53 | 192 | 3.0 | 7.0 | 0.00 | 0.00 | 0.00 | 89 | 1032.3 |
| 20260906053058 | 53 | 214 | 3.0 | 8.0 | 0.00 | 0.00 | 0.00 | 89 | 1032.3 |
| 20260906051555 | 53 | 210 | 2.0 | 4.0 | 0.00 | 0.00 | 0.00 | 89 | 1032.1 |
| 20260906050113 | 52 | 205 | 3.0 | 6.0 | 0.00 | 0.00 | 0.00 | 89 | 1032.1 |
| 20260906044553 | 52 | 206 | 2.0 | 5.0 | 0.00 | 0.00 | 0.00 | 90 | 1032.1 |
| 20260906043107 | 52 | 191 | 2.0 | 4.0 | 0.00 | 0.00 | 0.00 | 90 | 1032.0 |
| 20260906041552 | 52 | 205 | 2.0 | 8.0 | 0.00 | 0.00 | 0.00 | 90 | 1031.9 |
| 20260906040107 | 52 | 230 | 2.0 | 7.0 | 0.00 | 0.00 | 0.00 | 90 | 1031.7 |
| 20260906034559 | 52 | 198 | 2.0 | 5.0 | 0.00 | 0.00 | 0.00 | 90 | 1031.7 |
| 20260906033058 | 52 | 194 | 1.0 | 4.0 | 0.00 | 0.00 | 0.00 | 90 | 1031.6 |
| 20260906031555 | 52 | 194 | 3.0 | 6.0 | 0.00 | 0.00 | 0.00 | 88 | 1031.5 |
| 20260906030132 | 53 | 211 | 2.0 | 7.0 | 0.00 | 0.00 | 0.00 | 87 | 1031.2 |
| 20260906024557 | 53 | 207 | 2.0 | 4.0 | 0.00 | 0.00 | 0.00 | 87 | 1031.1 |
| 20260906023058 | 53 | 206 | 3.0 | 6.0 | 0.00 | 0.00 | 0.00 | 87 | 1030.8 |
| 20260906021610 | 53 | 205 | 2.0 | 6.0 | 0.00 | 0.00 | 0.00 | 86 | 1030.8 |
| 20260906020100 | 53 | 221 | 2.0 | 5.0 | 0.00 | 0.00 | 0.00 | 86 | 1030.9 |
| 20260906014552 | 53 | 219 | 3.0 | 7.0 | 0.00 | 0.00 | 0.00 | 86 | 1030.8 |
| 20260906013100 | 53 | 198 | 2.0 | 5.0 | 0.00 | 0.00 | 0.00 | 86 | 1030.8 |
| 20260906011605 | 53 | 238 | 2.0 | 6.0 | 0.00 | 0.00 | 0.00 | 87 | 1030.7 |
| 20260906010100 | 53 | 218 | 3.0 | 6.0 | 0.00 | 0.00 | 0.00 | 88 | 1030.8 |
| 20260906004556 | 53 | 186 | 3.0 | 6.0 | 0.00 | 0.00 | 0.00 | 89 | 1030.6 |
| 20260906003108 | 54 | 212 | 3.0 | 7.0 | 0.00 | 0.00 | 0.00 | 88 | 1030.6 |
| 20260906001547 | 54 | 194 | 4.0 | 7.0 | 0.00 | 0.00 | 0.00 | 88 | 1030.7 |
| 20260906000057 | 54 | 234 | 3.0 | 6.0 | 0.00 | 0.00 | 0.00 | 88 | 1030.6 |
| 20260905234603 | 54 | 196 | 2.0 | 5.0 | 0.00 | 0.00 | 0.00 | 89 | 1030.9 |
| 20260905233049 | 54 | 196 | 2.0 | 5.0 | 0.00 | 0.00 | 0.00 | 89 | 1030.7 |
| 20260905231557 | 54 | 195 | 2.0 | 5.0 | 0.00 | 0.00 | 0.00 | 89 | 1030.8 |
| 20260905230058 | 54 | 184 | 1.0 | 5.0 | 0.00 | 0.00 | 0.00 | 89 | 1030.8 |
| 20260905224548 | 54 | 190 | 3.0 | 6.0 | 0.00 | 0.00 | 0.00 | 88 | 1030.8 |
| 20260905223057 | 54 | 175 | 3.0 | 7.0 | 0.00 | 0.00 | 0.00 | 88 | 1030.7 |
| 20260905221550 | 54 | 194 | 4.0 | 7.0 | 0.00 | 0.00 | 0.00 | 88 | 1030.7 |
| 20260905220052 | 55 | 192 | 2.0 | 5.0 | 0.00 | 0.00 | 0.00 | 86 | 1030.8 |
| 20260905214606 | 55 | 207 | 2.0 | 6.0 | 0.00 | 0.00 | 0.00 | 86 | 1030.5 |
| 20260905213103 | 55 | 217 | 1.0 | 5.0 | 0.00 | 0.00 | 0.00 | 86 | 1030.5 |
| 20260905211554 | 55 | 232 | 3.0 | 7.0 | 0.00 | 0.00 | 0.00 | 87 | 1030.3 |
| 20260905210052 | 55 | 192 | 2.0 | 7.0 | 0.00 | 0.00 | 0.00 | 87 | 1030.5 |
| 20260905204545 | 55 | 202 | 3.0 | 7.0 | 0.00 | 0.00 | 0.00 | 86 | 1030.7 |
| 20260905203055 | 55 | 150 | 2.0 | 5.0 | 0.00 | 0.00 | 0.00 | 86 | 1030.8 |
| 20260905201550 | 55 | 201 | 2.0 | 5.0 | 0.00 | 0.00 | 0.00 | 86 | 1030.9 |
| 20260905200054 | 55 | 194 | 3.0 | 6.0 | 0.00 | 0.00 | 0.00 | 86 | 1031.0 |
| 20260905194559 | 55 | 228 | 2.0 | 9.0 | 0.00 | 0.00 | 0.00 | 85 | 1030.9 |
| 20260905193054 | 55 | 227 | 2.0 | 7.0 | 0.00 | 0.00 | 0.00 | 85 | 1030.8 |
| 20260905191556 | 55 | 225 | 3.0 | 7.0 | 0.00 | 0.00 | 0.00 | 85 | 1030.9 |
| 20260905190051 | 55 | 245 | 3.0 | 9.0 | 0.00 | 0.00 | 0.00 | 85 | 1030.7 |
| 20260905184603 | 55 | 213 | 5.0 | 11.0 | 0.00 | 0.00 | 0.00 | 84 | 1030.4 |
| 20260905183100 | 55 | 239 | 4.0 | 9.0 | 0.00 | 0.00 | 0.00 | 84 | 1030.3 |
| 20260905181552 | 56 | 229 | 3.0 | 9.0 | 0.00 | 0.00 | 0.00 | 83 | 1030.4 |
| 20260905180051 | 56 | 214 | 3.0 | 7.0 | 0.00 | 0.00 | 0.00 | 81 | 1030.3 |
| 20260905174550 | 56 | 193 | 2.0 | 4.0 | 0.00 | 0.00 | 0.00 | 80 | 1030.5 |
| 20260905173108 | 57 | 218 | 1.0 | 4.0 | 0.00 | 0.00 | 0.00 | 79 | 1030.0 |
| 20260905171553 | 57 | 223 | 2.0 | 5.0 | 0.00 | 0.00 | 0.00 | 77 | 1030.0 |
| 20260905170050 | 58 | 236 | 2.0 | 5.0 | 0.00 | 0.00 | 0.00 | 76 | 1029.9 |
| 20260905164548 | 58 | 217 | 1.0 | 4.0 | 0.00 | 0.00 | 0.00 | 75 | 1029.6 |
| 20260905163100 | 59 | 248 | 3.0 | 6.0 | 0.00 | 0.00 | 0.00 | 73 | 1029.6 |
| 20260905161551 | 59 | 222 | 3.0 | 6.0 | 0.00 | 0.00 | 0.00 | 73 | 1029.6 |
| 20260905160100 | 59 | 0 | 0.0 | 2.0 | 0.00 | 0.00 | 0.00 | 74 | 1029.4 |
| 20260905154557 | 60 | 0 | 0.0 | 2.0 | 0.00 | 0.00 | 0.00 | 71 | 1029.3 |
| 20260905153045 | 60 | 165 | 1.0 | 3.0 | 0.00 | 0.00 | 0.00 | 70 | 1029.2 |
| 20260905151552 | 61 | 0 | 0.0 | 2.0 | 0.00 | 0.00 | 0.00 | 68 | 1029.2 |
| 20260905150055 | 62 | 0 | 0.0 | 2.0 | 0.00 | 0.00 | 0.00 | 63 | 1029.0 |
| 20260905144553 | 62 | 222 | 0.0 | 3.0 | 0.00 | 0.00 | 0.00 | 64 | 1028.8 |
| 20260905143057 | 61 | 191 | 1.0 | 4.0 | 0.00 | 0.00 | 0.00 | 63 | 1028.9 |
| 20260905141609 | 61 | 0 | 1.0 | 5.0 | 0.00 | 0.00 | 0.00 | 63 | 1028.9 |
| 20260905140058 | 61 | 95 | 1.0 | 4.0 | 0.00 | 0.00 | 0.00 | 63 | 1028.8 |
| 20260905134607 | 61 | 202 | 2.0 | 6.0 | 0.00 | 0.00 | 0.00 | 64 | 1028.6 |
| 20260905133057 | 61 | 173 | 4.0 | 6.0 | 0.00 | 0.00 | 0.00 | 67 | 1028.8 |
| 20260905131556 | 62 | 244 | 1.0 | 5.0 | 0.00 | 0.00 | 0.00 | 63 | 1028.9 |
| 20260905130101 | 61 | 0 | 1.0 | 5.0 | 0.00 | 0.00 | 0.00 | 67 | 1029.0 |
| 20260905124555 | 59 | 40 | 0.0 | 2.0 | 0.00 | 0.00 | 0.00 | 72 | 1029.3 |
| 20260905123056 | 58 | 217 | 2.0 | 4.0 | 0.00 | 0.00 | 0.00 | 71 | 1029.5 |
| 20260905121545 | 57 | 213 | 1.0 | 4.0 | 0.00 | 0.00 | 0.00 | 73 | 1030.0 |
| 20260905120058 | 56 | 219 | 0.0 | 3.0 | 0.00 | 0.00 | 0.00 | 74 | 1030.0 |
| 20260905114626 | 56 | 203 | 2.0 | 7.0 | 0.00 | 0.00 | 0.00 | 75 | 1030.2 |
| 20260905113050 | 56 | 212 | 4.0 | 8.0 | 0.00 | 0.00 | 0.00 | 73 | 1030.5 |
| 20260905111553 | 56 | 200 | 1.0 | 4.0 | 0.00 | 0.00 | 0.00 | 76 | 1030.6 |
| 20260905110044 | 56 | 223 | 1.0 | 7.0 | 0.00 | 0.00 | 0.00 | 74 | 1030.8 |
| 20260905104553 | 55 | 227 | 1.0 | 4.0 | 0.00 | 0.00 | 0.00 | 75 | 1030.7 |
| 20260905103052 | 56 | 245 | 2.0 | 6.0 | 0.00 | 0.00 | 0.00 | 73 | 1031.0 |
| 20260905101557 | 54 | 157 | 4.0 | 8.0 | 0.00 | 0.00 | 0.00 | 77 | 1031.4 |
| 20260905100114 | 53 | 212 | 2.0 | 5.0 | 0.00 | 0.00 | 0.00 | 80 | 1031.6 |
| 20260905094610 | 52 | 242 | 3.0 | 7.0 | 0.00 | 0.00 | 0.00 | 81 | 1032.1 |
| 20260905093059 | 52 | 192 | 3.0 | 6.0 | 0.00 | 0.00 | 0.00 | 83 | 1032.3 |
| 20260905091612 | 51 | 82 | 1.0 | 4.0 | 0.00 | 0.00 | 0.00 | 82 | 1032.6 |
| 20260905090056 | 50 | 136 | 1.0 | 3.0 | 0.00 | 0.00 | 0.00 | 81 | 1032.6 |
| 20260905084553 | 50 | 182 | 1.0 | 3.0 | 0.00 | 0.00 | 0.00 | 82 | 1032.3 |
| 20260905083050 | 50 | 215 | 1.0 | 3.0 | 0.00 | 0.00 | 0.00 | 84 | 1032.9 |
| 20260905081556 | 50 | 106 | 2.0 | 5.0 | 0.00 | 0.00 | 0.00 | 82 | 1032.8 |
| 20260905080056 | 50 | 217 | 0.0 | 3.0 | 0.00 | 0.00 | 0.00 | 81 | 1032.8 |
| 20260905074600 | 50 | 222 | 0.0 | 2.0 | 0.00 | 0.02 | 0.00 | 83 | 1032.8 |
| 20260905073108 | 49 | 125 | 1.0 | 5.0 | 0.00 | 0.02 | 0.00 | 84 | 1032.6 |
| 20260905071558 | 49 | 171 | 2.0 | 4.0 | 0.00 | 0.02 | 0.00 | 86 | 1032.3 |
| 20260905070047 | 48 | 215 | 0.0 | 2.0 | 0.00 | 0.02 | 0.00 | 88 | 1032.6 |
| 20260905064608 | 47 | 214 | 0.0 | 2.0 | 0.00 | 0.04 | 0.00 | 90 | 1032.3 |
| 20260905063053 | 46 | 0 | 1.0 | 2.0 | 0.00 | 0.04 | 0.00 | 90 | 1032.3 |